This is the latest recevied weather packets stored in our database for station/object N4AR. If no packets are shown the sender has not sent any weather packets the latest 10 day(s).
| Time | Temp. | Humidity | Pressure | Rain* | Wind** | Luminosity | Snow |
|---|---|---|---|---|---|---|---|
| 1777916685 | 26.11° C | 31% | 1014.5 hPa | 0 mm | - | 516 W/m² | - |
| 1777916382 | 26.67° C | 33% | 1014.5 hPa | 0 mm | - | 689 W/m² | - |
| 1777916077 | 27.22° C | 31% | 1014.5 hPa | 0 mm | - | 663 W/m² | - |
| 1777915776 | 26.11° C | 34% | 1014.5 hPa | 0 mm | - | 830 W/m² | - |
| 1777915471 | 25.56° C | 33% | 1014.4 hPa | 0 mm | - | 792 W/m² | - |
| 1777915168 | 26.11° C | 33% | 1014.8 hPa | 0 mm | - | 231 W/m² | - |
| 1777914865 | 26.67° C | 30% | 1014.7 hPa | 0 mm | - | 269 W/m² | - |
| 1777914562 | 26.11° C | 32% | 1014.7 hPa | 0 mm | - | 759 W/m² | - |
| 1777914258 | 25.56° C | 31% | 1014.8 hPa | 0 mm | - | 921 W/m² | - |
| 1777913955 | 25.56° C | 32% | 1014.9 hPa | 0 mm | - | 209 W/m² | - |
| 1777913652 | 26.11° C | 34% | 1014.9 hPa | 0 mm | - | 901 W/m² | - |
| 1777913348 | 25.56° C | 32% | 1014.9 hPa | 0 mm | - | 302 W/m² | - |
| 1777913045 | 25° C | 35% | 1015 hPa | 0 mm | - | 884 W/m² | - |
| 1777912741 | 25° C | 36% | 1015.1 hPa | 0 mm | - | 879 W/m² | - |
| 1777912437 | 26.11° C | 32% | 1015.2 hPa | 0 mm | - | 879 W/m² | - |
| 1777912133 | 25° C | 33% | 1015.4 hPa | 0 mm | - | 871 W/m² | - |
| 1777911829 | 25° C | 35% | 1015.4 hPa | 0 mm | - | 95 W/m² | - |
| 1777911526 | 25.56° C | 34% | 1015.4 hPa | 0 mm | - | 90 W/m² | - |
| 1777911223 | 25° C | 34% | 1015.6 hPa | 0 mm | - | 850 W/m² | - |
| 1777910920 | 25° C | 37% | 1015.4 hPa | 0 mm | - | 838 W/m² | - |
| 1777910617 | 25° C | 35% | 1015.5 hPa | 0 mm | - | 829 W/m² | - |
| 1777910314 | 25.56° C | 35% | 1015.7 hPa | 0 mm | - | 825 W/m² | - |
| 1777910011 | 25° C | 36% | 1015.8 hPa | 0 mm | - | 818 W/m² | - |
| 1777909708 | 23.89° C | 37% | 1015.7 hPa | 0 mm | - | 803 W/m² | - |
| 1777909405 | 23.89° C | 38% | 1015.9 hPa | 0 mm | - | 793 W/m² | - |
* Rain latest hour (hover to see other rain measurements)
** Current wind speed in m/s (hover to see current wind gust speed)